When you browse on this site, cookies collect data to enhance your experience and personalize the content and advertising you see.
Visit our Privacy Policy to learn more. By continuing to use the site, you agree to this use of cookies and data.

Hourly Weather Tarija

Today, 15 July, Wednesday

Time Temperature Precipitation Wind Pressure Humidity
00:00 +10°C° 0 mm 2 mps 597 mmHg 78%
01:00 +10°C° 0 mm 2 mps 597 mmHg 77%
02:00 +10°C° 0 mm 2 mps 596 mmHg 74%
03:00 +9°C° 0 mm 2 mps 596 mmHg 73%
04:00 +9°C° 0 mm 2 mps 596 mmHg 72%
05:00 +9°C° 0 mm 2 mps 595 mmHg 71%
06:00 +10°C° 0 mm 2 mps 596 mmHg 66%
07:00 +12°C° 0 mm 2 mps 597 mmHg 61%
08:00 +12°C° 0 mm 2 mps 598 mmHg 57%
09:00 +15°C° 0 mm 2 mps 598 mmHg 47%
10:00 +18°C° 0 mm 2 mps 599 mmHg 38%
11:00 +20°C° 0 mm 3 mps 600 mmHg 29%
12:00 +21°C° 0 mm 3 mps 600 mmHg 27%
13:00 +22°C° 0 mm 3 mps 599 mmHg 26%
14:00 +24°C° 0 mm 3 mps 599 mmHg 25%
15:00 +22°C° 0 mm 3 mps 598 mmHg 32%
16:00 +21°C° 0 mm 3 mps 597 mmHg 39%
17:00 +19°C° 0 mm 3 mps 597 mmHg 46%
18:00 +17°C° 0 mm 2 mps 596 mmHg 54%
19:00 +15°C° 0 mm 2 mps 596 mmHg 63%
20:00 +13°C° 0 mm 2 mps 596 mmHg 72%
21:00 +13°C° 0 mm 2 mps 596 mmHg 70%
22:00 +12°C° 0 mm 2 mps 596 mmHg 68%
23:00 +12°C° 0 mm 2 mps 596 mmHg 66%

Tomorrow, 16 July, Thursday

Time Temperature Precipitation Wind Pressure Humidity
00:00 +12°C° 0 mm 2 mps 596 mmHg 66%
01:00 +10°C° 0 mm 2 mps 596 mmHg 65%
02:00 +10°C° 0 mm 2 mps 596 mmHg 65%
03:00 +10°C° 0 mm 2 mps 596 mmHg 61%
04:00 +10°C° 0 mm 2 mps 596 mmHg 58%
05:00 +10°C° 0 mm 2 mps 596 mmHg 54%
06:00 +12°C° 0 mm 2 mps 597 mmHg 51%
07:00 +13°C° 0 mm 2 mps 597 mmHg 48%
08:00 +14°C° 0 mm 2 mps 598 mmHg 44%
09:00 +17°C° 0 mm 2 mps 599 mmHg 37%
10:00 +19°C° 0 mm 2 mps 600 mmHg 29%
11:00 +23°C° 0 mm 2 mps 601 mmHg 22%
12:00 +24°C° 0 mm 2 mps 600 mmHg 20%
13:00 +25°C° 0 mm 2 mps 600 mmHg 18%
14:00 +26°C° 0 mm 2 mps 600 mmHg 16%
15:00 +25°C° 0 mm 2 mps 599 mmHg 24%
16:00 +24°C° 0 mm 2 mps 599 mmHg 32%
17:00 +23°C° 0 mm 2 mps 598 mmHg 40%
18:00 +19°C° 0 mm 2 mps 598 mmHg 50%
19:00 +18°C° 0 mm 1 mps 597 mmHg 61%
20:00 +15°C° 0 mm 1 mps 597 mmHg 72%
21:00 +14°C° 0 mm 1 mps 597 mmHg 73%
22:00 +14°C° 0 mm 1 mps 597 mmHg 74%
23:00 +14°C° 0 mm 2 mps 597 mmHg 75%

Day after tomorrow, 17 July, Friday

Time Temperature Precipitation Wind Pressure Humidity
00:00 +14°C° 0 mm 2 mps 597 mmHg 74%
01:00 +14°C° 0 mm 2 mps 596 mmHg 73%
02:00 +13°C° 0 mm 2 mps 596 mmHg 71%
03:00 +13°C° 0 mm 1 mps 596 mmHg 68%
04:00 +13°C° 0 mm 1 mps 596 mmHg 64%
05:00 +13°C° 0 mm 1 mps 596 mmHg 61%
06:00 +14°C° 0 mm 1 mps 596 mmHg 55%
07:00 +15°C° 0 mm 1 mps 597 mmHg 50%
08:00 +16°C° 0 mm 1 mps 598 mmHg 44%
09:00 +19°C° 0 mm 2 mps 599 mmHg 36%
10:00 +23°C° 0 mm 2 mps 600 mmHg 28%
11:00 +25°C° 0 mm 2 mps 600 mmHg 19%
12:00 +26°C° 0 mm 2 mps 600 mmHg 17%
13:00 +28°C° 0 mm 3 mps 600 mmHg 16%
14:00 +29°C° 0 mm 3 mps 599 mmHg 14%
15:00 +28°C° 0 mm 3 mps 598 mmHg 22%
16:00 +26°C° 0 mm 3 mps 597 mmHg 30%
17:00 +25°C° 0 mm 3 mps 597 mmHg 38%
18:00 +21°C° 0 mm 3 mps 596 mmHg 48%
19:00 +19°C° 0 mm 2 mps 596 mmHg 57%
20:00 +17°C° 0 mm 2 mps 595 mmHg 66%
21:00 +17°C° 0 mm 2 mps 595 mmHg 62%
22:00 +17°C° 0 mm 2 mps 595 mmHg 58%
23:00 +16°C° 0 mm 1 mps 595 mmHg 53%

18 July, Saturday

Time Temperature Precipitation Wind Pressure Humidity
00:00 +16°C° 0 mm 2 mps 595 mmHg 48%
01:00 +16°C° 0 mm 2 mps 594 mmHg 42%
02:00 +16°C° 0 mm 2 mps 594 mmHg 36%
03:00 +15°C° 0 mm 2 mps 594 mmHg 33%
04:00 +15°C° 0 mm 2 mps 594 mmHg 31%
05:00 +15°C° 0 mm 2 mps 593 mmHg 29%
06:00 +16°C° 0 mm 2 mps 594 mmHg 26%
07:00 +17°C° 0 mm 3 mps 595 mmHg 23%
08:00 +18°C° 0 mm 3 mps 596 mmHg 20%
09:00 +21°C° 0 mm 2 mps 597 mmHg 16%
10:00 +26°C° 0 mm 2 mps 598 mmHg 12%
11:00 +29°C° 0 mm 2 mps 599 mmHg 8%
12:00 +30°C° 0 mm 2 mps 599 mmHg 8%
13:00 +31°C° 0 mm 2 mps 599 mmHg 8%
14:00 +31°C° 0 mm 2 mps 598 mmHg 7%
15:00 +30°C° 0 mm 2 mps 598 mmHg 14%
16:00 +28°C° 0 mm 2 mps 597 mmHg 21%
17:00 +27°C° 0 mm 2 mps 596 mmHg 28%
18:00 +24°C° 0 mm 2 mps 596 mmHg 40%
19:00 +21°C° 0 mm 1 mps 595 mmHg 51%
20:00 +16°C° 0 mm 0 mps 594 mmHg 63%
21:00 +16°C° 0 mm 0 mps 594 mmHg 62%
22:00 +18°C° 0 mm 1 mps 594 mmHg 61%
23:00 +16°C° 0 mm 1 mps 594 mmHg 59%

19 July, Sunday

Time Temperature Precipitation Wind Pressure Humidity
00:00 +16°C° 0 mm 1 mps 594 mmHg 55%
01:00 +16°C° 0 mm 1 mps 594 mmHg 51%
02:00 +16°C° 0 mm 1 mps 594 mmHg 47%
03:00 +16°C° 0 mm 1 mps 594 mmHg 44%
04:00 +16°C° 0 mm 1 mps 594 mmHg 42%
05:00 +15°C° 0 mm 1 mps 594 mmHg 40%
06:00 +16°C° 0 mm 1 mps 595 mmHg 36%
07:00 +18°C° 0 mm 1 mps 595 mmHg 32%
08:00 +19°C° 0 mm 1 mps 596 mmHg 29%
09:00 +22°C° 0 mm 1 mps 597 mmHg 23%
10:00 +25°C° 0 mm 1 mps 598 mmHg 18%
11:00 +28°C° 0 mm 2 mps 599 mmHg 12%
12:00 +29°C° 0 mm 2 mps 599 mmHg 12%
13:00 +30°C° 0 mm 2 mps 599 mmHg 11%
14:00 +31°C° 0 mm 2 mps 598 mmHg 10%
15:00 +30°C° 0 mm 2 mps 597 mmHg 18%
16:00 +28°C° 0 mm 2 mps 597 mmHg 25%
17:00 +27°C° 0 mm 3 mps 596 mmHg 33%
18:00 +24°C° 0 mm 2 mps 595 mmHg 45%
19:00 +22°C° 0 mm 1 mps 595 mmHg 57%
20:00 +19°C° 0 mm 1 mps 594 mmHg 69%
21:00 +19°C° 0 mm 1 mps 594 mmHg 68%
22:00 +18°C° 0 mm 1 mps 594 mmHg 68%
23:00 +18°C° 0 mm 1 mps 594 mmHg 67%

20 July, Monday

Time Temperature Precipitation Wind Pressure Humidity
00:00 +18°C° 0 mm 1 mps 594 mmHg 64%
01:00 +16°C° 0 mm 1 mps 594 mmHg 60%
02:00 +16°C° 0 mm 1 mps 594 mmHg 57%
03:00 +16°C° 0 mm 1 mps 594 mmHg 54%
04:00 +16°C° 0 mm 1 mps 594 mmHg 51%
05:00 +16°C° 0 mm 1 mps 594 mmHg 48%
06:00 +18°C° 0 mm 1 mps 594 mmHg 42%
07:00 +19°C° 0 mm 1 mps 595 mmHg 37%
08:00 +20°C° 0 mm 1 mps 596 mmHg 31%
09:00 +23°C° 0 mm 1 mps 597 mmHg 25%
10:00 +26°C° 0 mm 2 mps 598 mmHg 20%
11:00 +29°C° 0 mm 2 mps 599 mmHg 14%
12:00 +30°C° 0 mm 2 mps 599 mmHg 13%
13:00 +31°C° 0 mm 2 mps 599 mmHg 12%
14:00 +32°C° 0 mm 2 mps 599 mmHg 11%
15:00 +31°C° 0 mm 2 mps 598 mmHg 19%
16:00 +29°C° 0 mm 3 mps 597 mmHg 26%
17:00 +27°C° 0 mm 3 mps 596 mmHg 34%
18:00 +25°C° 0 mm 2 mps 596 mmHg 45%
19:00 +22°C° 0 mm 1 mps 595 mmHg 56%
20:00 +20°C° 0 mm 1 mps 594 mmHg 68%
21:00 +19°C° 0 mm 1 mps 594 mmHg 66%
22:00 +19°C° 0 mm 1 mps 595 mmHg 65%
23:00 +19°C° 0 mm 1 mps 595 mmHg 64%
Show more